Location: Steinbach
(49.5170°N, 96.6830°W)
Time: 11:42:55
(UTC-05:00)

Daily predictions for brighter satellites

Satellite Brightness Start Highest point End
(mag) Time Altitude Azimuth Time Altitude Azimuth Time Altitude Azimuth
Meteor 2-9 Rocket 4.3 21:47:34 10° N 21:52:58 64° ENE 21:58:29 10° SSE
Cosmos 1238 Rocket 4.4 21:49:55 10° SSE 21:56:21 50° E 22:02:36 10° NNE
Cosmos 1666 2.6 21:53:08 10° N 21:56:55 81° E 22:00:40 10° SSE
Aureole 1 Rocket 3.2 21:54:25 10° SSE 21:57:12 26° ESE 21:59:47 10° NE
ISS -1.8 21:56:25 10° SSE 21:57:17 11° SE 21:58:10 10° ESE
NOSS 5 (C) 4.4 21:55:29 10° SW 21:58:51 78° NW 22:01:54 10° NE
DNEPR-1 R/B 3.7 21:55:29 10° NW 21:59:41 69° SW 22:04:08 10° SSE
Cosmos 1371 Rocket 4.3 21:57:20 10° NNW 22:02:38 58° ENE 22:07:51 10° SE
NOSS 2-2 (E) 3.6 21:58:55 10° SSW 22:02:59 62° SE 22:07:54 10° NE
Meteor 2-4 Rocket 3.9 21:59:03 10° S 22:04:34 58° E 22:10:17 10° NNE
DEBRIS 4.4 22:03:10 10° SSW 22:07:04 48° SE 22:20:17 10° ENE
Cosmos 921 Rocket 4.2 22:04:41 10° N 22:08:47 32° ENE 22:12:50 10° SE
Cosmos 1437 3.6 22:06:51 10° SSW 22:10:00 52° WNW 22:13:12 10° N
Cosmos 923 Rocket 4.0 22:04:59 10° SSW 22:10:18 77° ESE 22:15:38 10° NNE
Meteor 1-29 3.8 22:08:16 10° N 22:11:36 52° WNW 22:14:53 10° SSW
Cosmos 1536 Rocket 4.3 22:07:59 10° SSW 22:12:14 57° WNW 22:16:31 10° N
Lacrosse 5 rocket 3.4 22:10:10 10° WNW 22:14:20 34° N 22:18:36 10° ENE
Cosmos 1606 Rocket 4.0 22:10:36 10° N 22:14:48 46° ENE 22:18:50 11° SSE
Cosmos 2184 Rocket 4.3 22:08:41 10° NNW 22:15:03 72° W 22:21:19 10° S
Cosmos 2074 Rocket 4.4 22:08:58 10° NNW 22:15:11 69° W 22:21:23 10° S
TELKOM 3 3.0 22:13:15 10° W 22:15:30 81° SSW 22:18:28 10° ESE
USA 245 2.3 22:16:10 11° SSE 22:18:37 56° ENE 22:20:57 10° N
YAOGAN 6 4.0 22:18:29 10° SSW 22:21:44 35° W 22:24:59 10° NNW
YAOGAN 11 4.1 22:18:55 10° SSE 22:23:13 90° WSW 22:27:34 10° NNW
Cosmos 1726 Rocket 3.9 22:21:31 10° N 22:25:45 50° ENE 22:29:29 13° SSE
Meteor 1-4 Rocket 4.4 22:25:16 10° NNE 22:27:57 19° ENE 22:30:20 11° ESE
ERS-1 Rocket 3.6 22:23:03 10° S 22:27:57 54° W 22:32:54 10° NNW
Cosmos 405 Rocket 3.6 22:25:45 10° SSW 22:29:25 51° WNW 22:33:12 10° N
Cosmos 2058 Rocket 3.6 22:28:07 10° N 22:32:21 45° ENE 22:35:51 14° SE
MetOp-A 4.5 22:27:23 10° S 22:32:43 66° WSW 22:38:04 10° NNW
Meteor 1-23 Rocket 4.2 22:28:22 10° S 22:33:56 76° E 22:39:33 10° NNE
Cosmos 1818 4.0 22:28:44 10° SW 22:34:09 68° NW 22:39:38 10° NE
Intercosmos 24 4.0 22:29:49 10° NNW 22:34:13 75° W 22:37:47 10° S
Cosmos 1980 Rocket 3.7 22:32:16 10° NNW 22:37:01 27° NE 22:41:46 10° E
H-2A R/B 2.0 22:33:29 12° SSE 22:37:58 72° ENE 22:43:00 10° N
Meteor 1-15 Rocket 4.3 22:32:43 10° NNW 22:38:22 82° W 22:43:55 10° S
CARTOSAT-1 4.3 22:36:38 14° SE 22:39:55 39° ENE 22:43:58 10° N
Cosmos 1025 Rocket 3.0 22:36:35 10° S 22:40:52 87° E 22:45:10 10° N
Cosmos 1441 Rocket 3.4 22:38:18 10° SSW 22:42:02 69° WNW 22:45:47 10° N
Cosmos 192 4.3 22:37:28 10° SSW 22:42:22 79° ESE 22:47:18 10° NNE
MOS 1-B Rocket 4.4 22:37:16 10° S 22:42:58 62° W 22:49:26 10° NNW
Cosmos 2112 Rocket 4.0 22:37:53 10° SSW 22:43:07 86° WNW 22:48:21 10° NNE
Cosmos 2322 Rocket 4.5 22:41:17 10° N 22:44:47 16° NNE 22:48:17 10° ENE
NOSS 2-2 (D) 3.9 22:41:55 10° SW 22:46:02 72° NW 22:51:04 10° NE
Cosmos 1624 Rocket 4.1 22:41:31 10° NNW 22:46:48 79° WSW 22:51:17 15° SSE
CENTAUR R/B 4.2 22:41:16 10° NW 22:48:14 35° WSW 22:55:35 10° S
SeaSat 1 4.3 22:47:55 10° E 22:51:37 22° NE 22:55:19 10° N
SL-27 R/B 2.9 22:50:49 10° SSW 22:54:27 67° WNW 22:58:07 10° NNE
SL-08 RB Rocket 4.1 22:52:51 12° S 22:56:56 60° W 23:01:23 10° NNW
Cosmos 2154 Rocket 4.5 22:52:23 10° NNW 22:58:39 62° W 23:04:54 10° S
Nimbus 7 Rocket 4.4 22:53:13 10° NNE 22:59:19 78° ESE 23:05:23 10° SSW
ARGOS 3.8 22:55:16 10° S 23:00:31 52° W 23:05:50 10° NNW
COSMOS 2406 3.9 22:55:55 10° SW 23:01:34 60° WNW 23:07:15 10° NNE
Iridium 43 3.2 23:00:21 10° N 23:02:36 72° E 23:03:14 39° SSE
SL-8 Rocket 4.0 22:56:33 10° N 23:02:48 72° E 23:07:42 17° SSE
Landsat 7 3.8 23:00:33 17° SSE 23:04:14 88° W 23:09:02 10° NNW
H-2A R/B 2.3 23:01:56 20° SSE 23:05:03 68° ENE 23:09:35 10° N
Cosmos 2056 Rocket 3.8 23:00:25 10° NNW 23:05:32 60° WSW 23:09:30 16° S
SPOT 5 3.7 23:02:21 10° SSW 23:06:24 39° W 23:10:31 10° NNW
Cosmos 2278 3.7 23:00:46 10° NNW 23:06:32 84° WSW 23:10:40 19° SSE
Cosmos 1680 Rocket 4.4 23:01:44 10° SW 23:06:49 51° WNW 23:11:55 10° NNE
Cosmos 2366 rocket 4.2 23:00:44 10° N 23:06:52 59° ENE 23:11:14 19° SSE
USA 234 4.0 23:04:09 10° E 23:10:28 53° NNE 23:16:46 10° WNW
Cosmos 2082 Rocket 2.9 23:09:49 19° SSE 23:13:11 35° ESE 23:18:16 10° NE
Cosmos 1626 Rocket 4.2 23:14:23 23° SE 23:16:27 38° E 23:20:28 10° NNE
CZ-4B R/B 4.2 23:11:55 10° NNE 23:16:32 35° E 23:19:06 22° SSE
Terra 1.8 23:16:04 21° SSE 23:19:17 89° W 23:24:05 10° NNW
Tiangong 2 3.5 23:17:37 10° SW 23:17:53 11° SSW 23:17:53 11° SSW
Cosmos 1437 Rocket 4.3 23:18:23 10° NNW 23:21:45 29° W 23:24:53 11° SSW
COSMOS 2487 2.7 23:21:12 28° S 23:22:46 50° ESE 23:26:15 10° NNE
Cosmos 2369 4.0 23:19:26 10° NNW 23:25:07 63° WSW 23:28:55 21° S
Cosmos 1420 Rocket 4.2 23:21:34 10° NNW 23:26:51 66° ENE 23:30:02 24° SE
Spot 4 4.0 23:24:26 24° SE 23:27:15 63° ENE 23:32:02 10° N
Cosmos 1953 4.0 23:25:52 10° NNE 23:29:08 22° ENE 23:30:57 17° ESE
Cosmos 967 Rocket 4.4 23:25:41 10° SSW 23:31:54 72° ESE 23:38:11 10° NE
ISS -3.7 23:29:58 10° SW 23:33:10 50° SSE 23:36:24 10° ENE
SL-08 R/B 4.4 23:27:47 10° N 23:33:58 88° E 23:38:03 22° S
Cosmos 1697 Rocket 2.7 23:29:05 10° NNW 23:34:45 86° ENE 23:38:08 25° SSE
SL-16 R/B 3.8 23:30:07 10° NNW 23:34:58 27° NE 23:39:46 10° ESE
IGS 5A 3.7 23:33:12 24° S 23:35:34 63° W 23:39:44 10° NNW
Cosmos 1452 Rocket 3.6 23:32:33 10° NNW 23:37:50 74° WSW 23:40:54 25° S
Iridium 2 4.2 23:35:18 10° N 23:39:00 47° E 23:40:20 32° SE
Cosmos 1271 Rocket 3.3 23:35:34 10° N 23:39:18 46° ENE 23:40:49 30° SE
Cosmos 2228 3.9 23:36:55 10° NNW 23:41:03 44° W 23:43:46 19° SSW
DELTA 2 DEB (DPAF) 4.2 23:39:21 29° SSE 23:41:38 75° ENE 23:46:08 10° N
Cosmos 2218 Rocket 4.1 23:37:02 10° NNW 23:43:10 72° W 23:47:26 21° S
deb Chang Zheng 4 3.5 23:41:51 10° NNE 23:46:12 89° ENE 23:48:47 24° SSW
Cosmos 921 Rocket 4.4 23:43:03 10° NW 23:47:04 32° W 23:49:41 18° SSW
Cosmos 1602 Rocket 3.4 23:47:45 29° S 23:49:55 79° E 23:54:15 10° NNE
NOSS 8 (E) 4.5 23:48:44 29° SSW 23:50:23 66° SE 23:54:20 10° NE
ATLAS CENTAUR R/B 3.3 23:49:22 10° NNW 23:52:20 21° NNE 23:55:13 10° E
Lacrosse 5 rocket 3.0 23:50:11 10° NW 23:54:31 38° NNE 23:58:52 10° E
